Presure
291 284 265 230 215 247 266 206 222 218 207 239 233 208 175 220 189 229 219 251 176 199 161 166 180 181 170 171 170 171 180 160 171 195 185 177 181 192 187 185 211 189 205 207 195
376 309 289 279 274 246 233 267 241 242 222 219 230 226 240 228 221 212 220 209 221 230 189 182 194 186 176 188 177 170 179 181 196 179 195 186 197 191 182 201 175 207 204 203 195
372 357 329 334 311 256 239 244 256 265 251 217 194 205 246 231 230 223 244 205 235 259 244 240 231 206 216 209 205 190 188 192 190 194 192 198 188 191 196 194 192 196 206 202 197
362 345 343 327 330 275 270 242 253 281 245 271 264 239 251 231 222 263 239 260 233 240 227 269 261 226 217 199 200 203 213 196 198 201 197 196 195 195 200 196 201 202 200 202 186
352 340 333 334 306 294 270 254 256 239 255 263 240 255 235 269 260 242 238 266 220 254 248 229 231 239 211 216 204 203 195 206 206 202 192 190 199 191 194 188 199 200 195 200 190
342 330 328 320 304 305 303 306 244 286 247 258 255 254 236 226 222 259 262 246 231 247 231 207 220 259 248 246 204 198 209 206 210 198 193 202 190 198 195 197 202 200 195 194 183
333 321 314 303 322 304 305 288 273 252 239 270 268 232 252 265 262 240 258 230 241 236 228 215 220 212 220 231 252 255 216 210 205 201 201 207 197 201 194 194 199 195 200 199 191
328 318 320 307 295 299 282 285 251 242 265 265 252 247 249 237 241 250 245 244 246 244 233 215 245 238 230 226 231 231 231 233 235 232 205 202 195 199 203 202 198 197 196 198 188
301 311 302 297 283 293 279 275 279 265 266 254 245 248 233 237 247 251 248 249 241 248 224 236 235 241 236 237 245 218 233 235 225 222 245 237 214 204 208 197 204 203 196 196 197
324 299 310 307 282 300 277 267 259 266 258 244 247 236 240 242 231 231 240 234 231 241 239 232 234 231 239 240 236 231 206 227 226 230 230 236 233 228 215 213 207 189 198 193 194
306 311 295 299 285 204 278 270 280 267 256 243 246 227 235 244 237 233 228 235 230 225 234 234 238 243 234 232 233 231 229 228 233 234 228 236 227 220 219 215 203 203 204 203 198
303 305 326 287 293 287 263 260 266 274 258 250 227 232 240 226 231 224 228 226 221 232 226 230 224 226 240 244 237 243 232 224 232 216 202 213 225 215 209 212 198 206 202 194 198
319 306 310 302 300 293 265 257 255 285 258 251 229 232 225 228 226 214 224 221 228 222 225 223 223 246 253 266 246 234 225 219 216 226 222 216 204 215 212 207 205 197 195 189 199
305 308 295 319 286 285 277 262 255 254 259 249 236 233 225 228 221 219 216 223 224 225 236 223 238 239 239 252 246 238 226 219 218 219 217 219 216 215 213 207 201 201 198 188 198
307 311 290 304 308 283 277 264 134 272 258 230 238 234 225 227 217 221 218 225 227 235 227 231 312 316 233 228 232 222 221 221 221 216 213 216 215 205 208 203 198 199 199 195 201
388 319 296 301 293 292 277 264 268 278 256 252 229 225 227 230 226 226 218 220 221 228 225 235 306 305 297 228 223 226 223 225 224 215 218 214 213 210 209 206 202 199 194 198 192
377 326 300 305 283 293 277 273 261 260 268 243 221 226 226 224 220 219 221 225 220 223 221 273 285 286 288 287 222 221 223 226 222 221 212 206 206 203 180 199 160 195 197 196 197
327 319 309 300 301 283 274 279 264 259 252 238 232 220 225 225 220 220 222 220 216 220 218 259 275 276 276 279 274 219 213 220 217 214 208 204 210 195 198 200 133 147 197 197 201
336 314 310 297 286 289 275 275 272 248 245 252 222 222 231 226 223 216 216 218 215 214 215 224 256 263 272 270 267 229 207 214 215 219 208 206 202 195 195 196 198 200 201 203 202
245 331 319 300 295 285 280 272 274 261 251 242 247 229 218 231 224 225 216 214 207 208 216 212 237 250 258 262 263 258 209 208 212 217 210 204 201 194 191 199 197 197 172 169 199
262 346 321 310 304 292 278 276 270 278 273 249 242 239 218 219 227 226 216 212 214 212 211 213 209 239 245 250 255 256 235 208 208 208 209 206 200 198 202 198 197 200 198 173 175
217 373 342 315 302 299 288 278 276 269 274 264 241 240 233 220 220 223 227 210 216 212 208 213 211 225 235 238 243 249 246 216 205 202 205 206 202 201 205 198 199 200 198 198 200
220 273 369 344 314 296 293 286 275 272 276 267 255 240 236 221 224 217 225 221 210 216 213 207 215 209 227 231 236 236 237 239 223 201 193 200 196 198 197 200 199 200 199 195 197
221 228 384 366 338 320 294 290 283 279 268 265 266 258 237 231 233 215 215 222 213 207 216 211 208 207 208 213 212 217 231 230 231 233 207 196 196 198 197 196 197 198 203 201 196
224 295 346 370 363 333 315 291 284 297 282 268 262 273 247 241 230 229 216 218 214 219 200 209 213 210 205 205 207 213 200 217 225 230 231 230 216 199 191 193 196 184 184 186 190
211 239 342 369 369 360 332 304 298 283 306 275 271 262 265 257 243 230 224 218 212 220 215 214 203 210 206 201 205 205 207 210 216 212 216 221 223 224 223 215 198 190 188 189 190
216 248 358 342 366 365 351 324 299 303 283 282 286 272 273 263 262 248 229 226 223 216 224 220 216 209 210 208 204 205 203 200 204 210 214 215 213 214 215 216 217 218 217 216 215
Wind_Speed
73 74 85 97 94 89 87 89 99 93 83 98 95 89 92 85 102 89 95 93 121 123 92 100 125 126 104 107 94 103 108 68 97 94 93 92 91 88 85 78 61 65 56 44 41
39 62 68 69 72 87 92 79 91 92 93 86 86 85 89 84 81 82 82 88 91 95 121 120 120 123 115 119 112 97 109 105 99 89 84 90 78 80 78 69 56 58 52 44 43
34 37 46 42 52 73 79 75 73 75 80 88 74 77 81 78 78 80 80 87 82 78 82 87 93 104 99 102 103 118 113 105 93 88 86 78 77 77 73 67 63 58 50 46 42
29 33 36 38 34 62 64 69 67 62 74 68 71 76 73 76 73 71 75 70 75 73 78 71 81 93 97 100 100 103 91 93 86 79 77 78 76 72 69 66 62 56 49 47 46
25 30 33 33 37 47 59 62 63 67 64 64 67 65 70 62 64 69 69 59 70 61 65 75 77 81 90 92 92 90 88 82 80 77 76 75 71 69 66 63 62 56 50 47 43
21 28 29 28 36 31 39 42 59 51 59 60 61 62 62 67 62 56 57 65 67 60 67 78 74 62 69 76 90 85 85 82 79 76 75 76 70 68 65 65 61 58 51 47 49
18 24 29 32 32 37 36 40 48 54 56 53 54 57 58 52 51 55 55 61 58 63 64 70 71 72 73 73 66 67 81 79 81 80 82 78 67 70 68 67 62 58 58 51 46
16 18 23 29 32 34 39 43 51 53 49 51 53 55 54 53 53 48 51 54 55 57 62 65 55 59 67 69 67 67 70 69 68 71 81 75 69 70 72 68 65 59 55 52 48
16 18 25 28 30 33 42 44 42 46 47 50 52 53 52 53 48 45 48 50 53 55 60 59 59 58 60 61 57 64 57 58 65 67 58 59 77 73 72 67 68 63 55 51 49
21 19 23 28 32 32 47 44 47 47 48 50 51 51 51 48 45 47 45 46 49 50 52 55 57 59 58 58 56 55 68 58 58 57 57 54 56 60 65 64 64 56 57 51 51
15 17 24 31 35 31 44 46 45 48 50 50 51 49 49 47 45 44 44 45 48 50 50 50 51 52 62 64 63 61 61 59 54 52 51 50 56 58 59 59 61 58 58 54 50
21 15 18 31 35 42 45 47 47 50 51 51 50 51 48 47 46 46 47 48 51 49 51 49 54 63 64 66 64 61 57 53 51 52 60 55 57 56 55 57 57 57 57 53 52
23 16 16 32 34 43 48 47 45 42 51 52 51 51 48 48 47 50 49 50 49 51 53 54 63 57 57 62 61 57 53 53 57 57 58 62 61 57 56 57 56 58 57 57 53
20 17 16 21 38 44 53 51 47 45 49 52 53 52 50 50 49 51 52 51 51 50 48 54 51 52 53 56 59 57 59 59 60 60 60 62 58 57 58 58 59 60 59 60 58
27 19 16 20 30 44 42 51 33 52 51 49 53 52 51 53 54 54 52 49 47 43 46 50 29 34 53 57 59 62 61 62 65 63 62 56 57 56 57 56 59 61 61 62 62
19 18 15 22 28 42 47 46 49 52 51 53 52 53 53 53 54 52 51 49 44 41 46 40 29 36 46 59 60 64 61 63 65 63 57 57 55 59 57 60 61 62 62 64 64
8 15 13 18 27 36 45 47 49 50 48 53 53 55 55 54 55 53 51 48 44 42 44 28 26 33 44 53 59 60 59 61 61 58 54 62 58 60 60 62 61 63 66 68 70
22 16 14 15 28 35 44 46 50 53 49 52 57 56 58 57 56 54 50 46 45 43 45 29 28 34 42 49 55 62 61 62 63 62 64 71 59 57 64 66 63 65 72 73 75
23 20 18 16 20 35 44 48 54 55 53 54 58 58 61 60 58 55 52 51 47 46 45 41 32 34 41 51 59 62 54 64 63 65 65 63 56 60 64 68 72 74 75 76 77
93 24 17 22 21 26 43 49 48 59 63 60 60 61 58 62 60 59 57 54 54 52 49 50 39 38 42 47 55 59 64 62 61 63 65 64 63 64 71 76 77 77 71 70 79
91 25 27 26 27 25 34 48 53 55 62 67 63 63 62 62 64 62 60 59 56 56 55 54 54 43 45 46 51 57 67 64 63 64 65 66 66 71 76 78 80 81 82 75 77
101 22 30 31 31 30 35 43 52 57 58 69 68 67 67 68 67 65 63 63 61 61 60 57 57 49 48 51 54 56 61 70 65 63 67 70 71 76 78 82 83 84 85 87 87
107 85 26 33 34 36 37 43 50 56 61 62 74 73 69 70 71 67 66 66 65 64 63 63 58 59 52 52 53 56 59 63 70 71 68 72 69 79 81 85 86 88 89 88 89
105 106 27 30 34 39 42 44 49 57 62 63 67 76 77 75 75 72 69 69 68 67 67 67 64 63 63 61 63 64 64 67 70 73 76 74 76 82 84 85 87 88 91 92 92
108 88 41 29 34 39 43 46 50 57 61 67 67 69 80 82 80 78 74 74 72 72 71 70 68 68 69 70 71 68 74 69 71 73 76 76 81 83 87 89 91 87 88 89 92
105 107 54 34 30 37 44 49 52 55 56 64 66 72 72 77 87 85 81 78 77 77 77 77 72 73 73 75 75 77 78 78 76 76 75 76 79 82 87 91 94 93 94 96 98
114 111 45 42 36 33 41 49 53 58 58 59 67 70 70 77 78 87 88 86 82 80 82 83 79 78 79 79 79 79 75 76 77 79 81 82 84 87 88 91 94 97 100 102 103
Wind_Direction
262 258 255 256 258 254 252 257 261 260 257 259 260 254 246 254 251 256 253 249 253 253 256 259 262 262 262 265 264 270 270 261 272 272 272 274 274 277 275 280 278 280 281 281 274
254 257 253 252 250 253 256 248 255 255 259 257 258 254 256 259 256 253 254 249 248 249 253 256 257 257 261 261 263 264 267 267 269 272 270 270 271 272 274 274 265 277 278 275 268
251 244 249 243 246 248 251 248 247 246 248 258 246 254 249 255 256 253 250 247 250 244 246 246 248 251 252 254 256 258 263 266 266 267 266 264 266 269 270 270 274 275 274 271 264
250 243 236 234 232 246 244 247 243 239 247 242 245 248 245 251 253 243 248 245 247 248 247 244 243 246 249 251 253 256 255 259 260 259 259 262 263 266 265 268 272 271 270 268 256
254 236 232 224 228 239 241 241 241 246 242 240 248 242 247 239 241 246 247 239 244 244 244 243 245 243 247 248 250 253 257 257 257 255 258 260 259 262 263 265 267 268 264 263 256
252 235 223 222 227 227 226 219 239 228 240 238 240 240 241 243 244 240 234 241 244 241 243 243 245 241 242 243 250 253 253 256 255 254 257 257 257 258 261 263 264 266 262 258 250
261 238 225 224 224 217 215 217 225 235 238 228 229 241 237 235 236 241 236 241 240 241 243 242 243 245 243 243 244 244 246 247 250 253 255 254 254 255 258 258 259 259 263 260 253
270 241 220 210 216 215 214 213 232 232 226 225 230 235 234 238 237 234 236 237 237 239 240 241 240 239 240 243 242 243 245 245 243 244 249 250 251 253 253 251 254 256 257 257 250
281 252 221 212 217 219 206 220 214 220 220 225 230 229 236 236 234 233 235 237 239 240 235 240 239 241 240 242 241 242 243 240 241 242 234 235 247 250 250 251 253 255 253 253 255
277 259 233 218 215 213 210 219 221 214 216 224 226 231 235 233 235 234 236 235 236 237 237 237 238 238 242 243 241 236 238 235 236 236 234 231 230 234 242 245 250 251 252 251 252
293 267 234 215 212 232 200 215 209 211 216 223 224 231 233 232 233 234 235 234 234 235 239 239 239 240 237 236 234 233 233 235 233 233 235 229 231 237 238 239 245 247 250 252 252
303 274 255 220 214 201 213 221 218 212 213 216 228 229 227 232 231 233 235 233 235 238 236 236 234 234 235 233 232 229 232 234 233 233 234 235 227 230 236 240 243 243 245 245 250
283 285 257 221 217 207 207 222 226 210 212 214 225 225 228 228 228 233 234 235 237 234 234 232 233 237 234 230 230 231 230 230 231 227 224 228 231 226 229 232 236 238 241 240 246
318 282 270 237 217 216 203 217 228 221 212 214 221 222 225 226 229 232 235 237 237 237 241 236 240 236 234 227 225 222 223 223 227 227 225 225 226 226 226 228 233 237 240 239 242
312 287 264 230 219 216 211 213 259 223 214 223 222 222 223 224 230 231 234 239 240 244 239 238 233 228 225 226 222 223 222 222 223 226 229 229 226 231 229 231 238 240 241 243 243
291 258 252 230 224 215 215 216 222 223 216 216 226 227 226 223 228 230 235 238 238 242 238 239 240 224 217 227 224 225 223 224 223 227 228 232 229 233 232 234 236 239 243 245 247
279 262 257 237 231 219 217 214 214 222 217 216 226 228 228 227 230 231 233 236 236 239 237 249 240 230 225 220 227 228 228 226 225 227 225 232 230 232 239 238 246 241 241 243 243
333 313 266 249 230 224 222 223 215 221 219 219 222 229 229 229 230 232 233 234 234 237 235 252 245 231 226 225 222 225 227 224 224 223 221 228 225 231 237 237 253 252 240 242 240
322 315 294 261 249 230 227 227 211 222 228 219 225 228 229 231 231 232 232 232 231 235 237 236 241 236 233 227 223 225 229 228 228 225 226 232 229 234 240 242 242 242 241 241 241
360 304 282 273 257 239 233 232 228 216 222 227 221 225 231 233 234 232 232 232 230 232 234 231 237 237 234 232 230 226 230 232 231 229 228 229 230 231 238 237 240 242 248 249 243
359 286 292 277 249 246 234 236 238 228 220 225 228 222 229 232 235 234 232 233 231 232 233 233 230 235 233 236 235 232 227 233 231 230 230 228 231 233 234 237 241 241 243 249 250
356 288 272 279 269 243 235 231 236 241 227 222 231 230 224 231 233 232 231 234 233 232 234 233 233 234 233 233 234 234 233 230 234 234 231 230 230 235 235 239 240 241 244 246 246
354 350 284 269 261 260 245 235 232 233 239 226 224 232 232 232 232 234 235 234 235 234 234 235 233 234 237 237 238 239 238 238 235 234 235 234 234 237 239 239 242 243 244 248 249
353 350 306 277 263 253 252 244 235 231 233 238 230 226 232 234 230 235 236 234 235 238 236 236 234 235 235 235 235 236 237 236 237 237 235 235 235 238 242 244 246 247 247 248 250
351 344 327 296 272 260 250 247 242 237 231 232 235 235 227 231 236 236 235 235 236 235 236 238 238 238 238 239 237 234 236 240 242 242 241 240 238 238 242 244 245 250 253 254 255
347 346 330 303 281 264 255 249 243 240 236 232 231 233 236 227 229 235 238 236 236 237 237 236 235 236 237 239 241 242 241 239 240 241 243 244 245 244 245 245 247 250 251 253 254
346 345 315 312 292 272 257 250 246 242 237 236 234 231 233 232 229 229 235 238 238 237 238 240 237 236 238 239 240 242 247 249 251 249 246 245 245 246 246 247 248 248 249 250 252